O3B FM10

Last updated on Sat Jul 18 2026 00:03:21 GMT+0000 (Coordinated Universal Time)

1 40348U 14083A 26197.74322066 -.00000025 00000+0 00000+0 0 9996 2 40348 0.0408 347.1886 0004802 114.2162 258.6450 5.00115529211373
UTC large
Height (km)
Speed (km/s)
/
Latitude / Longitude
Inclination (degrees)
Orbital Period (minutes)
Azimuth
Elevation
Range (km)
Doppler Factor

Next 0 passes for location: London (51.5072 / 0.1276)

No passes found over London.
O3B FM10